APRIZESAT 4 (35684 NORAD) Tracking and Keplerian Element Data

This shows tracking and keplerian element data for the satellite.

Feedback or suggestion? Click here.




ElementValue
Catalog35684
NameAPRIZESAT 4
Epoch Orbit48357
Epoch Day198.91620171
Epoch Year2018
RAAN151.5595
Inclination98.1759
Eccentricity0.0045873
Argument of Perigee263.5955
Mean Anonmoly96.0031
Mean Motion14.7914107
Decay Rate2.5E-07
L11 35684U 09041D 18198.91620171 .00000025 00000-0 11064-4 0 9997
L22 35684 98.1759 151.5595 0045873 263.5955 96.0031 14.79141070483570

Live tracking and technical data element details for APRIZESAT 4 (NORAD 35684). APRIZESAT 4 can be tracked NOW for your location showing map with azimuth and elevation plus other details from your city location.

Track the satellite on the map from your city or location and see movement details for azimuth, elevation, latitude, longitude, range, height, and movement on the map or in text.







IsCatalogInMostPopularTable: catalog: 35684, numindb: 29
Update: records affected: 1



GetName: 35684 APRIZESAT 4

Hit Count: updated at: Thu, 19 Jul 2018 21:10:19 GMT